Weather History for Flagstaff, AZ

Change the Weather History Date:

Thursday, February 20, 2014

  Actual Average Record
Temperature  
Mean Temperature 33 °F 33 °F  
Max Temperature 46 °F 46 °F 65 °F (1977)
Min Temperature 20 °F 20 °F -11 °F (1955)
Degree Days  
Heating Degree Days 32 32  
Month to date heating degree days 581 669  
Since 1 July heating degree days 4400 4585  
Cooling Degree Days 0 0  
Month to date cooling degree days 0 0  
Year to date cooling degree days 0 0  
Moisture  
Dew Point 4 °F    
Average Humidity 39    
Maximum Humidity 62    
Minimum Humidity 16    
Precipitation  
Precipitation 0.00 in 0.08 in 1.18 in (1993)
Month to date precipitation 0.12 1.51  
Year to date precipitation 0.29 3.56  
Snow  
Snow 0.00 in 0.70 in 8.70 in (1987)
Month to date snowfall 2.1 15.5  
Since 1 July snowfall 33.5 67.8  
Snow Depth 0.00 in    
Sea Level Pressure  
Sea Level Pressure 30.08 in    
Wind  
Wind Speed 6 mph (ENE)    
Max Wind Speed 18 mph    
Max Gust Speed 25 mph    
Visibility 10 miles    
Events      
T = Trace of Precipitation, MM = Missing Value Source: NWS Daily Summary

Daily Weather History Graph

Daily Weather History Graph

Search for Another Location

Airport:

Trip Planner

Search our weather history database for the weather conditions in past years. The results will help you decide how hot, cold, wet, or windy it might be!

Date:

Astronomy

Feb. 20, 2014 Rise Set
Actual Time 7:07 AM MST 6:14 PM MST
Civil Twilight 6:41 AM MST 6:39 PM MST
Nautical Twilight 6:11 AM MST 7:09 PM MST
Astronomical Twilight 5:42 AM MST 7:38 PM MST
Moon 11:57 PM MST (2/20) 10:05 AM MST (2/20)
Length of Visible Light 11h 58m
Length of Day
11h 07m
Waning Gibbous, 70% of the Moon is Illuminated
Feb 20
Waning Gibbous
Feb 22
Last Quarter
Mar 1
New
Mar 8
First Quarter
Mar 16
Full

Hourly Weather History & Observations

Time (MST) Temp. Windchill Dew Point Humidity Pressure Visibility Wind Dir Wind Speed Gust Speed Precip Events Conditions
12:57 AM 36.0 °F 29.6 °F 6.1 °F 29% 29.85 in 10.0 mi WNW 8.1 mph - N/A   Clear
1:57 AM 35.1 °F - 5.0 °F 28% 29.87 in 10.0 mi North - - N/A   Clear
2:57 AM 35.1 °F 30.1 °F -0.0 °F 23% 29.87 in 10.0 mi Variable 5.8 mph - N/A   Clear
3:57 AM 28.9 °F - 1.9 °F 32% 29.94 in 10.0 mi Calm Calm - N/A   Clear
4:57 AM 27.0 °F 18.7 °F 9.0 °F 47% 29.99 in 10.0 mi East 8.1 mph - N/A   Clear
5:57 AM 24.1 °F - 10.0 °F 55% 30.04 in 10.0 mi Calm Calm - N/A   Clear
6:57 AM 19.9 °F 13.4 °F 9.0 °F 62% 30.10 in 10.0 mi NNE 4.6 mph - N/A   Clear
7:57 AM 25.0 °F 19.3 °F 9.0 °F 51% 30.12 in 10.0 mi NE 4.6 mph - N/A   Clear
8:57 AM 28.0 °F 18.1 °F 5.0 °F 38% 30.14 in 10.0 mi ENE 11.5 mph 18.4 mph N/A   Clear
9:57 AM 32.0 °F 20.8 °F 3.9 °F 31% 30.15 in 10.0 mi NE 17.3 mph 25.3 mph N/A   Clear
10:57 AM 36.0 °F 28.0 °F 3.9 °F 26% 30.14 in 10.0 mi East 11.5 mph 20.7 mph N/A   Clear
11:57 AM 37.9 °F 30.9 °F 3.0 °F 23% 30.13 in 10.0 mi East 10.4 mph 19.6 mph N/A   Clear
12:57 PM 41.0 °F 35.2 °F 1.9 °F 20% 30.10 in 10.0 mi ENE 9.2 mph 17.3 mph N/A   Clear
1:57 PM 42.1 °F 36.6 °F 1.0 °F 18% 30.09 in 10.0 mi SE 9.2 mph - N/A   Clear
2:57 PM 43.0 °F 37.7 °F -0.0 °F 17% 30.07 in 10.0 mi ESE 9.2 mph - N/A   Clear
3:57 PM 44.1 °F 39.5 °F -0.0 °F 16% 30.09 in 10.0 mi ENE 8.1 mph - N/A   Clear
4:57 PM 44.1 °F 40.1 °F -0.0 °F 16% 30.09 in 10.0 mi Variable 6.9 mph - N/A   Clear
5:57 PM 39.9 °F 37.8 °F 3.0 °F 21% 30.13 in 10.0 mi ENE 3.5 mph - N/A   Clear
6:57 PM 30.9 °F - 5.0 °F 33% 30.19 in 10.0 mi Calm Calm - N/A   Clear
7:57 PM 27.0 °F - 3.9 °F 37% 30.20 in 10.0 mi Calm Calm - N/A   Clear
8:57 PM 26.1 °F - 6.1 °F 43% 30.19 in 10.0 mi Calm Calm - N/A   Clear
9:57 PM 24.1 °F - 7.0 °F 48% 30.17 in 10.0 mi Calm Calm - N/A   Clear
10:57 PM 23.0 °F - 7.0 °F 50% 30.15 in 10.0 mi Calm Calm - N/A   Clear
11:57 PM 21.0 °F - 6.1 °F 53% 30.15 in 10.0 mi Calm Calm - N/A   Clear